Location: Julian California
(33.0790°N, 116.6010°W)
Time: 23:53:23
(UTC-07:00)

Daily predictions for brighter satellites

Satellite Brightness Start Highest point End
(mag) Time Altitude Azimuth Time Altitude Azimuth Time Altitude Azimuth
NOSS 3-2 (C) 4.2 20:03:08 10° NNW 20:10:52 87° ENE 20:19:01 10° SSE
FENGYUN 3A 3.8 20:10:21 10° SSE 20:15:40 61° ENE 20:20:58 10° N
SL-8 R/B 3.7 20:11:03 10° SW 20:15:47 63° SE 20:20:32 10° ENE
NOSS 3-2 (A) 4.4 20:09:21 10° NW 20:17:01 72° WSW 20:25:06 10° SSE
CENTAUR R/B 4.0 20:16:00 10° NNW 20:23:04 34° NE 20:30:25 10° ESE
In-Cosmos 22 Rocket 4.3 20:18:01 10° S 20:23:46 65° E 20:29:30 10° NNE
NOSS 2-2 (D) 3.9 20:24:28 10° S 20:28:11 37° ESE 20:32:10 10° NE
USA 186 1.5 20:27:46 10° SSE 20:30:38 75° ENE 20:33:45 10° N
Cosmos 2221 Rocket 3.6 20:26:39 10° N 20:31:07 86° W 20:35:31 10° S
Cosmos 1892 3.5 20:28:44 10° SSE 20:32:07 32° E 20:35:33 10° NNE
H-2A R/B 2.6 20:29:01 10° SSE 20:32:42 86° ENE 20:36:25 10° N
Cosmos 1624 Rocket 4.4 20:30:33 10° S 20:35:24 41° ESE 20:40:21 10° NNE
Envisat 4.1 20:34:09 11° SE 20:38:12 27° ENE 20:42:26 10° NNE
Cosmos 1733 Rocket 3.8 20:34:26 10° SSE 20:38:23 32° E 20:42:18 10° NNE
Meteor 2-10 Rocket 4.3 20:35:35 10° N 20:40:59 39° ENE 20:45:56 12° SE
NOSS 2-2 (C) 3.4 20:38:52 10° SSW 20:42:47 57° ESE 20:47:05 10° NE
Cosmos 2181 Rocket 4.1 20:39:14 10° N 20:45:42 90° W 20:52:03 10° S
CZ-3C R/B 3.9 20:01:52 10° WSW 20:48:59 36° S 20:55:54 16° SE
H-2A R/B -0.4 20:49:17 10° W 20:51:40 57° S 20:52:06 37° SE
SPOT 5 3.9 20:58:36 19° ESE 21:01:39 34° ENE 21:06:22 10° N
NOSS 2-2 (E) 3.6 20:57:55 10° SW 21:01:58 76° WNW 21:06:31 10° NNE
Cosmos 1356 Rocket 3.4 20:59:38 10° S 21:03:49 88° WNW 21:08:04 10° N
H-2A R/B 2.5 21:01:14 20° SE 21:03:54 45° ENE 21:07:59 10° N
SJ-11-01 4.2 21:00:15 12° SSE 21:04:38 82° ENE 21:09:23 10° N
Cosmos 2074 Rocket 4.0 20:58:24 10° S 21:04:41 83° E 21:10:59 10° N
Orbus 7S 4.5 21:00:20 10° WSW 21:05:17 32° SSW 21:06:19 25° SSE
ERS-1 Rocket 2.9 21:02:06 12° SSE 21:06:43 84° ENE 21:11:46 10° N
GPS 2-05 Rocket1 3.7 21:04:42 10° SW 21:07:55 29° SSE 21:08:18 29° SE
IUS-26 SRM-1 3.9 21:07:56 10° SW 21:08:31 14° SSW 21:08:31 14° SSW
Nimbus 7 Rocket 4.4 21:04:00 10° NNE 21:09:54 66° ESE 21:15:50 10° S
COSMOS 2406 3.7 21:04:27 10° N 21:09:57 45° ENE 21:13:04 24° SE
ALOS 4.1 21:07:09 10° SSW 21:11:13 30° W 21:15:19 10° NW
Cosmos 1610 Rocket 4.4 21:07:05 10° S 21:13:06 64° E 21:19:13 10° NNE
Meteor 1-10 Rocket 4.3 21:10:17 10° N 21:16:04 61° E 21:19:42 22° SSE
EO 1 Delta rocket 4.2 21:14:04 10° NNE 21:20:18 70° E 21:24:35 15° S
ARGOS 4.4 21:20:05 22° E 21:21:44 25° ENE 21:26:03 10° NNE
Abrixas rocket 2.4 21:18:36 10° NW 21:21:59 63° NE 21:22:48 45° E
Sich 1 Rocket 3.6 21:20:04 21° S 21:23:00 63° E 21:27:32 10° NNE
ATLAS 5 CENTAUR R/B 2.7 21:19:17 10° NNW 21:25:17 55° ENE 21:28:29 29° ESE
Cosmos 2278 Rocket 2.7 21:25:14 29° SE 21:26:59 35° ESE 21:32:05 10° NE
Cosmos 1825 2.9 21:29:24 34° E 21:29:24 34° E 21:32:36 10° NNE
Cosmos 1844 3.7 21:23:42 10° S 21:29:18 61° ESE 21:35:00 10° NNE
CZ-3A R/B 3.7 21:16:45 10° W 21:33:12 38° SSW 21:35:12 28° SSE
CZ-4B R/B 3.7 21:29:03 10° NNE 21:33:46 44° E 21:34:50 38° SE
Cosmos 2341 Rocket 4.2 21:31:20 27° SSE 21:34:38 52° E 21:40:41 10° NNE
Cosmos 1939 Rocket 3.4 21:33:27 25° SSW 21:35:27 53° W 21:39:15 10° NNW
Cosmos 1674 Rocket 3.5 21:33:01 10° N 21:37:28 88° ENE 21:39:08 38° S
Cosmos 2056 Rocket 4.3 21:32:49 10° SW 21:37:50 50° WNW 21:42:50 10° N
USA 234 3.2 21:33:31 10° NE 21:39:58 62° SE 21:46:23 10° SSW
Cosmos 1844 Rocket 2.8 21:34:39 10° SSW 21:40:18 77° WNW 21:45:58 10° NNE
Cosmos 1782 2.8 21:39:10 10° N 21:43:11 78° W 21:44:17 46° S
Cosmos 1782 Rocket 3.8 21:44:31 47° E 21:44:35 47° E 21:48:52 10° NNE
Coronas F rocket 4.5 21:44:05 10° WSW 21:45:25 13° WNW 21:46:46 10° NW
UNK 4.4 21:39:25 10° NNE 21:45:39 83° ESE 21:50:11 18° S
Meteor 1-27 Rocket 3.6 21:41:55 10° N 21:47:28 67° E 21:49:08 44° SE
YAOGAN 6 2.6 21:49:06 64° NE 21:49:06 64° NE 21:52:17 10° N
Cosmos 1408 2.7 21:49:55 59° NE 21:49:55 59° NE 21:53:06 10° NNE
SL-27 R/B 2.4 21:46:33 10° NNW 21:50:06 83° NNE 21:50:06 83° NNE
Cosmos 2082 Rocket 4.4 21:48:35 10° NE 21:50:12 11° NE 21:51:28 10° ENE
Atlas Centaur 2 1.8 21:52:06 10° W 21:54:40 42° SW 21:54:40 42° SW
COS B Rocket 3.6 21:53:09 10° N 21:57:16 64° W 21:57:55 54° SW
MetOp-A 4.1 21:57:43 42° S 21:59:36 78° WSW 22:04:57 10° NNW
CZ-4 R/B 3.7 21:56:10 10° NNE 22:00:45 63° E 22:00:45 63° E
Cosmos 962 Rocket 4.4 21:59:16 32° S 22:02:17 89° E 22:08:30 10° N
SL-8 Rocket 4.2 22:01:45 46° ESE 22:02:45 51° E 22:08:46 10° NNE
SL-08 RB Rocket 4.0 22:03:06 50° ENE 22:03:06 50° ENE 22:07:25 10° N
Cosmos 1606 2.8 22:00:45 10° N 22:04:36 72° W 22:04:36 72° W
Cosmos 1975 Rocket 3.5 22:01:00 10° N 22:04:34 46° NE 22:04:34 46° NE
Meteor 2-13 Rocket 4.4 22:03:38 48° SSE 22:05:18 68° E 22:11:24 10° NNE
Cosmos 2154 Rocket 4.3 22:02:30 17° SSW 22:07:16 63° W 22:13:26 10° N
Okean 3 3.6 22:07:01 10° N 22:10:48 66° NNE 22:10:48 66° NNE
NOAA 11 4.1 22:10:39 63° SE 22:11:29 76° ENE 22:16:58 10° N
BREEZE-M DEB (TANK) 3.7 22:09:00 10° WNW 22:10:43 38° W 22:10:43 38° W
Cosmos 1242 Rocket 4.4 22:09:58 10° N 22:11:41 23° NNE 22:11:41 23° NNE
CENTAUR R/B 3.6 22:06:19 10° NW 22:14:06 55° WSW 22:17:53 32° S
H-2A R/B 4.4 22:10:10 10° W 22:15:45 65° S 23:15:25 10° ESE
H-2A R/B 4.4 22:10:09 10° W 22:15:45 65° S 23:15:25 10° ESE
H-2A R/B 2.7 22:17:21 43° ENE 22:17:21 43° ENE 22:22:21 10° N
Cosmos 1378 Rocket 4.0 22:18:08 10° NNW 22:22:15 56° W 22:22:15 56° W
ERBS 4.3 22:21:38 10° NW 22:23:30 28° WNW 22:23:30 28° WNW
Cosmos 1420 Rocket 3.9 22:26:29 87° SW 22:26:34 89° W 22:31:50 10° NNE
SPOT 1/Viking Rocket 3.9 22:31:45 52° SW 22:32:17 55° W 22:37:23 10° NNW
Cosmos 864 Rocket 4.5 22:35:38 63° ENE 22:35:38 63° ENE 22:41:25 10° NNE
Landsat 7 4.2 22:39:28 61° N 22:39:28 61° N 22:43:24 10° NNW
Cosmos 2366 rocket 3.8 22:40:48 76° E 22:40:52 76° E 22:47:09 10° N
Cosmos 407 Rocket 4.5 22:37:00 10° NW 22:41:50 38° W 22:42:19 37° WSW
Meteor 1-14 Rocket 4.2 22:42:37 83° W 22:42:39 83° W 22:48:19 10° N
Cosmos 489 Rocket 4.3 22:37:13 10° NNW 22:43:26 86° ENE 22:43:34 85° ESE
Terra 2.6 22:55:45 48° N 22:55:45 48° N 22:59:10 10° NNW
Cosmos 1140 Rocket 4.0 22:53:35 10° NNW 22:57:38 55° NW 22:57:38 55° NW
ARGOS 4.3 23:01:36 33° WSW 23:01:46 33° W 23:06:34 10° NW
Cosmos 2218 Rocket 4.3 23:02:10 56° WSW 23:02:56 60° W 23:09:16 10° N
ATLAS 5 CENTAUR R/B 4.1 23:05:00 10° WNW 23:09:42 23° WSW 23:10:03 23° WSW
Cosmos 2278 Rocket 4.1 23:06:57 12° WSW 23:11:03 26° WNW 23:15:46 10° N
Cosmos 1833 Rocket 3.6 23:16:42 10° N 23:20:41 42° NNE 23:20:41 42° NNE
Cosmos 1727 Rocket 4.3 23:19:35 10° NNW 23:24:55 61° NW 23:24:55 61° NW
Cosmos 2082 Rocket 3.0 23:29:20 10° NNW 23:33:18 47° NNW 23:33:18 47° NNW
